Regional Weather Roundup
Issued by NWS Cleveland, OH

Home | Current Version | Previous Version | Text Only | Print | Product List | Glossary On
Versions: 1 2 3 4 5 6 7 8 9 10 11 12 13 14 15 16 17 18 19 20 21 22 23 24 25 26 27 28 29 30 31 32 33 34 35 36 37 38 39 40 41 42 43 44 45 46 47 48 49 50
000
ASUS41 KCLE 061112
RWRCLE
OHIO REGIONAL WEATHER ROUNDUP
NATIONAL WEATHER SERVICE WILMINGTON, OH
700 AM EDT FRI MAY 06 2016

NOTE: "FAIR" INDICATES FEW OR NO CLOUDS BELOW 12,000 FEET WITH NO
SIGNIFICANT WEATHER AND/OR OBSTRUCTIONS TO VISIBILITY.

OHZ001>008-015>018-024>027-034-035-043-044-061200-
   NORTHWEST OHIO

CITY           SKY/WX    TMP DP  RH WIND       PRES   REMARKS
DEFIANCE       FAIR      48  40  73 CALM      29.95R
FINDLAY        FAIR      48  35  60 N5        29.92R
TOLEDO EXPRESS FAIR      42  38  85 W5        29.93R
TOLEDO EXEC    FAIR      47  36  65 CALM      29.94R
LIMA           FAIR      45  42  89 CALM      29.93R
$$

OHZ009>014-019>023-028>033-038-089-061200-
   NORTHEAST OHIO

CITY           SKY/WX    TMP DP  RH WIND       PRES   REMARKS
CLE-HOPKINS    FAIR      47  42  83 NW5       29.91R
CLE-LAKEFRONT  FAIR      50  42  74 NW8       29.89R
CUY CO. ARPT   PTCLDY    45  39  81 CALM      29.89
LORAIN-ELYRIA  MOCLDY    45  39  79 NW6       29.91R
ASHTABULA      FAIR      45  41  86 N6        29.87R
AKRON-CANTON   FAIR      44  40  85 NW8       29.86R
WOOSTER        FAIR      43  40  89 NW9       29.88R
MANSFIELD      FAIR      42  39  89 NW7       29.90R
YOUNGSTOWN     MOCLDY    44  41  89 N7        29.84R
$$

OHZ042-051>053-060>062-070>072-077>081-061200-
  SOUTHWEST OHIO

CITY           SKY/WX    TMP DP  RH WIND       PRES   REMARKS
CINC-COVINGTON FAIR      48  42  80 NW6       29.94R
CINC-LUNKEN    FAIR      43  43 100 CALM      29.94S
HAMILTON       FAIR      43  42  97 NW5       29.95R
DAYTON         FAIR      45  41  86 NW6       29.94R
WRIGHT-PAT AFB FAIR      42  41  98 SE2       29.93R
DAYTON GENERAL FAIR      47  41  80 N7        29.92R
WILMINGTON     FAIR      44  39  82 N5        29.91R
$$

OHZ036-037-039>041-045>050-054>059-063>069-073>076-082>088-061200-
  CENTRAL AND SOUTHEAST OHIO

CITY           SKY/WX    TMP DP  RH WIND       PRES   REMARKS
COLUMBUS       FAIR      46  39  76 N8        29.89R
OSU AIRPORT    FAIR      46  37  71 N8        29.91R
BOLTON FIELD   FAIR      45  38  77 NW7       29.91R
RICKENBACK AFB FAIR      46  38  76 N6        29.90R
NEWARK         FAIR      47  39  74 CALM      29.88R
MARION         FAIR      44  37  76 N5        29.92R
LANCASTER      FAIR      46  40  79 NW6       29.89R
ZANESVILLE     FAIR      48  42  80 NW7       29.86R
NEW PHILLY     FAIR      46  42  86 NW5       29.86R
$$




USA.gov is the U.S. government's official web portal to all federal, state and local government web resources and services.